Location: Strawberry
(45.6646°N, 111.9596°W)
Time: 00:35:50
(UTC+00:00)

Vanguard 1 Rocket - Pass Details

Date: 28 September 2022
Orbit: 650 x 4225 km, 34.3° (Epoch: 05 December)

Event Time Altitude Azimuth Distance (km) Brightness Sun altitude
Rises 01:20:25 0° 196° (SSW) 8,218 12.5 -1.7°
Reaches altitude 10° 01:29:35 10° 181° (S) 6,691 11.8 -3.3°
Maximum altitude 01:40:34 17° 148° (SSE) 5,150 10.9 -5.2°
Drops below altitude 10° 01:48:47 10° 113° (ESE) 4,860 10.5 -6.7°
Enters shadow 01:50:36 - 106° (ESE) 4,961 10.5 -7.0°
